Regional Weather Roundup
Issued by NWS Nashville, TN

Home | Current Version | Previous Version | Text Only | Print | Product List | Glossary On
Versions: 1 2 3 4 5 6 7 8 9 10 11 12 13 14 15 16 17 18 19 20 21 22 23 24 25 26 27 28 29 30 31 32 33 34 35 36 37 38 39 40 41 42 43 44 45 46 47 48 49 50
000
ASUS44 KOHX 281610
RWROHX
MIDDLE TENNESSEE HOURLY WEATHER ROUNDUP
NATIONAL WEATHER SERVICE NASHVILLE TN
1100 AM CDT FRI APR 28 2017

NOTE: "FAIR" INDICATES FEW OR NO CLOUDS BELOW 12,000 FEET WITH
NO SIGNIFICANT WEATHER AND/OR OBSTRUCTIONS TO VISIBILITY.

* THESE REPORTS ARE NOT UNDER NWS QUALITY CONTROL AND MAY NOT
  REPORT WEATHER SUCH AS PRECIPITATION AND FOG.


TNZ005>011-023>034-057-059-062>066-078-080-281700
...NORTHERN MIDDLE TENNESSEE...

CITY           SKY/WX    TMP DP  RH WIND       PRES   REMARKS
CLARKSVILLE    MOSUNNY   70  58  65 S8G17     29.90S
CROSSVILLE     CLOUDY    70  59  68 S12G22    30.03R
GALLATIN       MOSUNNY   73  63  68 S7        29.97F
DICKSON        MOSUNNY   72  62  70 S12       29.91R
LEBANON        SUNNY     75  63  66 S13       29.94S
NASHVILLE      MOSUNNY   76  64  66 S13G21    29.94S
PORTLAND       SUNNY     72  61  68 S14       29.93F
SMYRNA         PTSUNNY   75  64  68 S8        29.96S
SPARTA         PTSUNNY   75  63  64 S8        29.96F
SPRINGFIELD    SUNNY     73  64  73 S9G23     29.91S
WEST NASHVILLE PTSUNNY   73  64  73 S16       29.93S
$$
TNZ056-058-060-061-075>077-079-093>097-281700
...SOUTHERN MIDDLE TENNESSEE...

CITY           SKY/WX    TMP DP  RH WIND       PRES   REMARKS
COLUMBIA       CLOUDY    73  73 100 S13       29.92S
FAYETTEVILLE   CLOUDY    72  66  83 S12       29.96S
MCMINNVILLE    MOSUNNY   77  66  69 VRB7      29.98S
MURFREESBORO   CLOUDY    75  63  66 S13       29.94
SHELBYVILLE    CLOUDY    75  66  73 S13       29.97R
TULLAHOMA      PTSUNNY   73  64  73 S13       29.97F
WINCHESTER     PTSUNNY   73  64  73 S16       29.99R
$$


...KEY TO REMARKS...
VSB - VISIBILITY IN MILES
WCI - WIND CHILL INDEX
HX  - HEAT INDEX




USA.gov is the U.S. government's official web portal to all federal, state and local government web resources and services.